[[{"header":{"parameterUnit":"m.s-1","parameterCategory":1,"la1":30.2991,"la2":30.254,"lo1":-89.0895,"lo2":-89.0444,"dy":0.0017,"dx":0.0017,"nx":28,"ny":28,"refTime":"2025-09-02T03:00:00:Z","depth":0,"parameterNumber":2,"parameterNumberName":"U-component_of_WINDS"},"data":[0,0,0,0,0,0,0,0,0,0,0,0,0,0,0,0,0,0,0,0,0,0,0,0,0,0,0,0,0,0,0,0,0,0,0,0,0,0,0,0,0,0,0,0,0,0,0,0,0,0,0,0,0,0,0,0,0,0,-1.3142,-1.3142,0,-1.3187,-1.3188,-1.3188,-1.3161,-1.316,-1.3159,-1.3157,-1.3205,-1.3208,-1.321,0,0,0,0,0,0,0,0,0,0,0,0,0,-1.3034,-1.3036,-1.3142,-1.3142,-1.3143,-1.3187,-1.3188,-1.3188,-1.3162,-1.316,-1.3158,-1.3157,-1.3205,-1.3208,-1.3211,0,0,0,0,0,0,0,0,0,0,0,0,0,-1.308,-1.3037,-1.3142,-1.3135,-1.3135,-1.3187,-1.3188,-1.3189,-1.3162,-1.316,-1.3158,-1.3156,-1.3204,-1.3207,-1.3211,-1.3273,0,0,-1.3222,-1.3224,0,0,0,0,0,0,0,0,-1.3078,-1.3084,-1.3135,-1.3135,-1.3135,-1.3167,-1.3167,-1.3217,-1.3162,-1.3152,-1.3157,-1.3155,-1.3194,-1.3199,-1.3211,-1.3275,-1.3278,-1.3223,-1.3225,-1.3227,-1.3228,0,0,0,0,0,0,0,-1.3074,-1.3082,-1.316,-1.3136,-1.3136,-1.313,-1.3135,-1.3177,-1.3183,-1.3152,-1.315,-1.3156,-1.3194,-1.3208,-1.3212,-1.3278,-1.3223,-1.3226,-1.3228,-1.323,-1.3397,-1.3399,0,0,0,0,0,0,-1.3071,-1.308,-1.3158,-1.3161,-1.3101,-1.3134,-1.3139,-1.3159,-1.3183,-1.3185,-1.3158,-1.3155,-1.3202,-1.3208,-1.3214,-1.3289,-1.3227,-1.323,-1.3232,-1.3395,-1.3397,-1.34,0,0,0,0,0,0,-1.3069,-1.3079,-1.3157,-1.312,-1.3129,-1.3138,-1.316,-1.316,-1.3174,-1.3187,-1.3188,-1.3171,-1.3201,-1.3209,-1.3259,-1.3291,-1.3232,-1.3235,-1.3392,-1.3396,-1.3399,-1.344,0,0,0,0,0,0,-1.3066,-1.3078,-1.3101,-1.3121,-1.3131,-1.32,-1.3162,-1.3163,-1.3181,-1.3177,-1.3199,-1.3201,-1.32,-1.3253,-1.3263,-1.3295,-1.3238,-1.3389,-1.3394,-1.3398,-1.3436,-1.3444,-1.3451,0,0,0,0,0,-1.3062,-1.3111,-1.3103,-1.3112,-1.316,-1.3202,-1.3208,-1.3206,-1.3183,-1.3207,-1.3215,-1.3201,-1.3286,-1.3259,-1.3269,-1.3303,-1.3387,-1.3392,-1.3397,-1.3432,-1.3443,-1.3451,0,0,0,0,0,0,-1.3096,-1.3114,-1.3104,-1.316,-1.318,-1.3197,-1.3227,-1.3216,-1.3243,-1.3239,-1.3235,-1.324,-1.3293,-1.3302,-1.3272,-1.3365,-1.3333,-1.334,-1.3356,-1.3366,-1.3374,-1.3371,-1.3241,0,0,0,0,0,-1.3109,-1.3141,-1.3155,-1.3204,-1.3214,-1.3219,-1.3237,-1.3233,-1.3253,-1.3262,-1.3273,-1.3294,-1.3326,-1.3346,-1.3376,-1.3437,-1.3442,-1.3465,-1.3473,-1.3479,-1.3486,-1.352,-1.3531,-1.3416,-1.3416,-1.3416,0,0,-1.3138,-1.3152,-1.3172,-1.3211,-1.3225,-1.3259,-1.3226,-1.3263,-1.3288,-1.3267,-1.3316,-1.3325,-1.3348,-1.3404,-1.343,-1.3414,-1.3519,-1.3486,-1.3491,-1.3494,-1.3526,-1.3537,-1.3547,-1.3419,-1.3419,-1.3418,0,0,-1.3208,-1.3222,-1.3264,-1.3279,-1.3302,-1.3305,-1.3315,-1.3335,-1.334,-1.3388,-1.3374,-1.3404,-1.3458,-1.3475,-1.3491,-1.3569,-1.3556,-1.3578,-1.362,-1.3653,-1.3662,-1.367,-1.3699,-1.3709,-1.3585,-1.3585,-1.3585,0,-1.3242,-1.3291,-1.3287,-1.3325,-1.3343,-1.3325,-1.3369,-1.3384,-1.3415,-1.3428,-1.3411,-1.3479,-1.3493,-1.3553,-1.3572,-1.3585,-1.3598,-1.3576,-1.3661,-1.3669,-1.3676,-1.3704,-1.3714,-1.3587,-1.3587,-1.3587,-1.3587,0,-1.3332,-1.3366,-1.3398,-1.3428,-1.3449,-1.349,-1.3493,-1.3515,-1.351,-1.3515,-1.3565,-1.3582,-1.3615,-1.3629,-1.3624,-1.3689,-1.3679,-1.3661,-1.3629,-1.369,-1.3716,-1.3726,-1.3591,-1.359,-1.3589,-1.3589,0,0,-1.3424,-1.3452,-1.3463,-1.3477,-1.3501,-1.3528,-1.3569,-1.3601,-1.362,-1.3643,-1.3677,-1.3723,-1.3708,-1.3726,-1.3723,-1.3752,-1.3814,-1.3731,-1.3731,-1.3746,-1.3888,-1.3902,-1.3914,-1.3806,-1.3808,-1.3809,-1.3886,0,-1.3496,-1.3566,-1.3563,-1.3629,-1.3661,-1.3646,-1.3681,-1.37,-1.3706,-1.3736,-1.3743,-1.3776,-1.3752,-1.3763,-1.3791,-1.38,-1.3842,-1.3795,-1.3838,-1.384,-1.3834,-1.3927,-1.3941,-1.4013,-1.3896,-1.3898,-1.3899,0,-1.3589,-1.3615,-1.3683,-1.3703,-1.3717,-1.3749,-1.3778,-1.3806,-1.3828,-1.383,-1.3851,-1.3844,-1.3886,-1.3852,-1.3911,-1.3878,-1.3896,-1.3904,-1.3906,-1.3911,-1.3874,-1.3935,-1.4036,-1.4047,-1.3915,-1.3913,-1.3912,0,-1.3651,-1.3702,-1.375,-1.3763,-1.3787,-1.381,-1.3821,-1.3841,-1.386,-1.3886,-1.3899,-1.393,-1.3947,-1.3972,-1.3974,-1.3949,-1.4033,-1.3999,-1.4037,-1.4037,-1.4056,-1.4055,-1.4162,-1.4066,-1.4066,-1.4066,-1.4065,0,-1.3732,-1.3775,-1.3778,-1.3808,-1.3856,-1.3853,-1.3901,-1.391,-1.3928,-1.3959,-1.3948,-1.3978,-1.3978,-1.4009,-1.4011,-1.4059,-1.4067,-1.4071,-1.4071,-1.4072,-1.4072,-1.4085,-1.408,-1.4069,-1.4068,-1.4067,-1.4067,0,-1.3809,-1.3813,-1.3864,-1.3883,-1.3889,-1.3923,-1.394,-1.3969,-1.3974,-1.4014,-1.4024,-1.4033,-1.4069,-1.4073,-1.4115,-1.4116,-1.4175,-1.4169,-1.4167,-1.4167,-1.4205,-1.4201,-1.4324,-1.4341,-1.4233,-1.4234,-1.4235,0,-1.3861,-1.3894,-1.3916,-1.3936,-1.3949,-1.3982,-1.4002,-1.4001,-1.4022,-1.405,-1.4076,-1.411,-1.4138,-1.4197,-1.4207,-1.424,-1.4235,-1.4276,-1.424,-1.4241,-1.4237,-1.4236,-1.4239,-1.4284,-1.4285,-1.4286,-1.4286,0,-1.3954,-1.3954,-1.3983,-1.4013,-1.4037,-1.4061,-1.4084,-1.4101,-1.4103,-1.4128,-1.4164,-1.4186,-1.4229,-1.4264,-1.4296,-1.4309,-1.4299,-1.4298,-1.4308,-1.4311,-1.4309,-1.4311,-1.4187,-1.4295,-1.4294,-1.4294,-1.4293,-1.4293,-1.402,-1.4049,-1.4069,-1.4103,-1.4119,-1.414,-1.4169,-1.4177,-1.4208,-1.4242,-1.424,-1.4281,-1.4303,-1.4345,-1.4359,-1.4392,-1.4378,-1.4394,-1.4398,-1.4402,-1.4406,-1.4303,-1.4398,-1.4397,-1.4397,-1.4397,-1.4397,0,-1.4113,-1.4125,-1.4156,-1.4187,-1.4214,-1.4201,-1.4225,-1.4249,-1.4284,-1.4305,-1.4333,-1.4376,-1.441,-1.4423,-1.4457,-1.4481,-1.4477,-1.449,-1.4488,-1.4492,-1.4415,-1.4403,-1.4492,-1.4492,-1.4492,-1.4492,-1.4492,-1.4492,-1.4164,-1.4212,-1.4215,-1.4272,-1.4284,-1.4324,-1.4339,-1.4359,-1.4375,-1.4424,-1.4452,-1.446,-1.4479,-1.4514,-1.4545,-1.4548,-1.4562,-1.4577,-1.4578,-1.4507,-1.4497,-1.4488,-1.4476,-1.4579,-1.4579,-1.4652,-1.4652,-1.4653]},{"header":{"parameterUnit":"m.s-1","parameterCategory":1,"la1":30.2991,"la2":30.254,"lo1":-89.0895,"lo2":-89.0444,"dy":0.0017,"dx":0.0017,"nx":28,"ny":28,"refTime":"2025-09-02T03:00:00:Z","depth":0,"parameterNumber":3,"parameterNumberName":"V-component_of_WINDS"},"data":[0,0,0,0,0,0,0,0,0,0,0,0,0,0,0,0,0,0,0,0,0,0,0,0,0,0,0,0,0,0,0,0,0,0,0,0,0,0,0,0,0,0,0,0,0,0,0,0,0,0,0,0,0,0,0,0,0,0,3.9839,3.984,0,3.9891,3.9892,3.9893,3.9866,3.9865,3.9863,3.9862,3.9911,3.9913,3.9916,0,0,0,0,0,0,0,0,0,0,0,0,0,3.9711,3.9713,3.9839,3.984,3.984,3.9891,3.9892,3.9893,3.9866,3.9865,3.9863,3.9861,3.991,3.9913,3.9916,0,0,0,0,0,0,0,0,0,0,0,0,0,3.9765,3.9714,3.9839,3.9833,3.9834,3.9891,3.9892,3.9893,3.9867,3.9865,3.9863,3.9861,3.9909,3.9913,3.9917,3.9981,0,0,3.9928,3.993,0,0,0,0,0,0,0,0,3.9762,3.977,3.9834,3.9834,3.9834,3.987,3.9865,3.9922,3.9867,3.9854,3.9862,3.986,3.9899,3.9903,3.9917,3.9984,3.9986,3.9929,3.9931,3.9933,3.9934,0,0,0,0,0,0,0,3.9758,3.9767,3.986,3.9835,3.9835,3.9827,3.9832,3.9876,3.9887,3.9855,3.9853,3.986,3.9898,3.9914,3.9918,3.9986,3.9929,3.9932,3.9934,3.9936,4.0106,4.0108,0,0,0,0,0,0,3.9756,3.9764,3.9858,3.9861,3.9793,3.9831,3.9837,3.9861,3.9886,3.9889,3.9862,3.9859,3.9908,3.9914,3.992,3.9995,3.9933,3.9936,3.9938,4.0103,4.0106,4.0108,0,0,0,0,0,0,3.9753,3.9764,3.9856,3.9812,3.9823,3.9835,3.9862,3.9863,3.9878,3.9892,3.9893,3.9876,3.9907,3.9915,3.9966,3.9997,3.9938,3.9942,4.0101,4.0104,4.0107,4.0148,0,0,0,0,0,0,3.9749,3.9763,3.9789,3.9813,3.9826,3.9903,3.9864,3.9865,3.9885,3.9882,3.9905,3.9907,3.9906,3.996,3.997,4.0001,3.9945,4.0098,4.0102,4.0106,4.0144,4.0152,4.0159,0,0,0,0,0,3.9745,3.9798,3.9791,3.9802,3.9859,3.9905,3.9912,3.9911,3.9888,3.9913,3.9922,3.9906,3.9993,3.9966,3.9976,4.0009,4.0096,4.0101,4.0106,4.014,4.015,4.0159,0,0,0,0,0,0,3.9776,3.9801,3.9793,3.9856,3.9879,3.99,3.9932,3.9922,3.995,3.9945,3.9941,3.9947,4.0,4.001,3.998,4.0072,4.004,4.0048,4.0063,4.0073,4.008,4.0076,3.9948,0,0,0,0,0,3.9791,3.9827,3.9847,3.99,3.9912,3.992,3.994,3.9937,3.996,3.9968,3.9981,4.0002,4.0033,4.0054,4.0084,4.0146,4.0149,4.0173,4.0181,4.0187,4.0193,4.0224,4.0234,4.0125,4.0125,4.0124,0,0,3.982,3.9838,3.9861,3.9907,3.9924,3.996,3.9928,3.9968,3.9994,3.9974,4.0023,4.0033,4.0056,4.0112,4.0138,4.0122,4.0224,4.0194,4.0199,4.0201,4.023,4.024,4.025,4.0128,4.0127,4.0127,0,0,3.9892,3.9911,3.9956,3.9974,4.0001,4.0006,4.0017,4.004,4.0046,4.0096,4.0081,4.0111,4.0167,4.0183,4.0198,4.0276,4.0262,4.0286,4.0325,4.0356,4.0364,4.0372,4.0397,4.0407,4.0292,4.0292,4.0292,0,3.9924,3.998,3.9981,4.0021,4.0041,4.0026,4.0071,4.0088,4.0122,4.0135,4.0118,4.0186,4.0201,4.0259,4.0278,4.0292,4.0303,4.0282,4.0364,4.0371,4.0378,4.0402,4.0412,4.0295,4.0294,4.0294,4.0294,0,4.0018,4.0056,4.009,4.0124,4.0148,4.019,4.0195,4.0219,4.0214,4.0221,4.027,4.0287,4.0319,4.0334,4.033,4.0392,4.0381,4.0364,4.0332,4.0391,4.0413,4.0423,4.0298,4.0297,4.0297,4.0296,0,0,4.0109,4.0144,4.0156,4.0171,4.0199,4.0228,4.0269,4.0302,4.0321,4.0345,4.0378,4.0425,4.0409,4.0427,4.0424,4.0451,4.0509,4.0431,4.0431,4.0442,4.0575,4.0586,4.0597,4.0501,4.0503,4.0504,4.0573,0,4.0181,4.0254,4.0256,4.0322,4.0356,4.0343,4.0379,4.0399,4.0406,4.0434,4.0442,4.0474,4.0452,4.0462,4.0489,4.0496,4.0535,4.0492,4.0528,4.053,4.0521,4.0609,4.0621,4.0685,4.0582,4.0583,4.0584,0,4.0274,4.0302,4.0372,4.0395,4.0409,4.0441,4.047,4.0499,4.0521,4.0524,4.0544,4.0537,4.0577,4.0546,4.0599,4.0569,4.0585,4.0591,4.0593,4.0594,4.0559,4.061,4.0705,4.0714,4.0598,4.0597,4.0596,0,4.033,4.0386,4.0435,4.0448,4.0476,4.0498,4.0511,4.0531,4.055,4.0576,4.0588,4.0617,4.0633,4.0655,4.0655,4.0633,4.0709,4.0678,4.071,4.071,4.0724,4.0723,4.082,4.0739,4.0739,4.0738,4.0738,0,4.0408,4.0451,4.046,4.049,4.0536,4.0538,4.0583,4.0593,4.0611,4.0641,4.0632,4.066,4.066,4.0688,4.0689,4.0732,4.074,4.0741,4.074,4.0741,4.074,4.0749,4.0743,4.0741,4.074,4.074,4.0739,0,4.0478,4.0486,4.0538,4.0561,4.0567,4.06,4.0618,4.0646,4.0652,4.069,4.0699,4.0708,4.0741,4.0744,4.0782,4.0782,4.0833,4.0829,4.0826,4.0824,4.0855,4.0851,4.0959,4.0973,4.0885,4.0886,4.0886,0,4.0526,4.0559,4.0585,4.0605,4.0619,4.0652,4.0671,4.0673,4.0694,4.0721,4.0744,4.0776,4.0802,4.0854,4.0863,4.0891,4.0885,4.0922,4.0889,4.0888,4.0883,4.088,4.0882,4.0927,4.0928,4.0929,4.0929,0,4.061,4.0612,4.0642,4.0673,4.0697,4.0722,4.0744,4.0761,4.0765,4.0789,4.0822,4.0842,4.0881,4.0911,4.0939,4.095,4.0939,4.094,4.0948,4.0947,4.0943,4.0943,4.084,4.0937,4.0936,4.0935,4.0935,4.0935,4.0669,4.0696,4.0719,4.0752,4.0769,4.0791,4.0817,4.0827,4.0856,4.0888,4.0887,4.0924,4.0943,4.098,4.0992,4.102,4.1007,4.102,4.1023,4.1025,4.1027,4.0941,4.1025,4.1025,4.1025,4.1024,4.1024,0,4.0749,4.0763,4.0794,4.0826,4.0852,4.0843,4.0867,4.0888,4.092,4.0941,4.0966,4.1004,4.1033,4.1045,4.1074,4.1093,4.1089,4.11,4.1097,4.1099,4.1038,4.1026,4.1103,4.1103,4.1103,4.1103,4.1103,4.1103,4.0794,4.084,4.0845,4.0898,4.0912,4.0948,4.0963,4.0981,4.0997,4.104,4.1065,4.1073,4.109,4.1119,4.1145,4.1148,4.1158,4.117,4.1171,4.1112,4.1104,4.1096,4.1086,4.1173,4.1173,4.123,4.123,4.1231]}]]